Weather History for Marathon, FL

Change the Weather History Date:

Wednesday, November 30, 2011

  Actual Average Record
Temperature  
Mean Temperature 69 °F 74 °F  
Max Temperature 74 °F 79 °F 98 °F (1997)
Min Temperature 64 °F 69 °F 60 °F (2002)
Degree Days  
Heating Degree Days 0 0  
Month to date heating degree days 0 1  
Since 1 July heating degree days 0 1  
Cooling Degree Days 4 9  
Month to date cooling degree days 362 325  
Year to date cooling degree days 5141 4764  
Growing Degree Days 18 (Base 50)    
Moisture  
Dew Point 58 °F    
Average Humidity 66    
Maximum Humidity 78    
Minimum Humidity 53    
Precipitation  
Precipitation 0.00 in 0.08 in 0.50 in (2008)
Month to date precipitation 0.30 2.82  
Year to date precipitation 35.81 44.15  
Snow  
Snow 0.00 in - - ()
Month to date snowfall 0.0  
Since 1 July snowfall 0.0  
Since 1 September snowfall 0.0  
Snow Depth 0.00 in    
Sea Level Pressure  
Sea Level Pressure 30.02 in    
Wind  
Wind Speed 6 mph (North)    
Max Wind Speed 15 mph    
Max Gust Speed 21 mph    
Visibility 10 miles    
Events      
T = Trace of Precipitation, MM = Missing Value Source: NWS Daily Summary

Daily Weather History Graph

Daily Weather History Graph

Search for Another Location

Airport:

Trip Planner

Search our weather history database for the weather conditions in past years. The results will help you decide how hot, cold, wet, or windy it might be!

Date:

Astronomy

Nov. 30, 2011 Rise Set
Actual Time 6:50 AM EST 5:34 PM EST
Civil Twilight 6:26 AM EST 5:59 PM EST
Nautical Twilight 5:58 AM EST 6:27 PM EST
Astronomical Twilight 5:30 AM EST 6:55 PM EST
Moon 11:25 AM EST (11/30) 11:09 PM EST (11/30)
Length of Visible Light 11h 33m
Length of Day
10h 43m
Waxing Crescent, 33% of the Moon is Illuminated
Nov 30
Waxing Crescent
Dec 2
First Quarter
Dec 10
Full
Dec 17
Last Quarter
Dec 24
New

Hourly Weather History & Observations

Time (EST) Temp. Dew Point Humidity Pressure Visibility Wind Dir Wind Speed Gust Speed Precip Events Conditions
12:53 AM 68.0 °F 57.0 °F 68% 30.02 in 10.0 mi North 9.2 mph - N/A   Clear
1:53 AM 68.0 °F 57.0 °F 68% 30.01 in 10.0 mi North 8.1 mph - N/A   Clear
2:53 AM 66.9 °F 57.0 °F 70% 30.01 in 10.0 mi NNE 6.9 mph - N/A   Clear
3:53 AM 66.0 °F 55.9 °F 70% 30.00 in 10.0 mi NNE 8.1 mph - N/A   Clear
4:53 AM 66.0 °F 55.9 °F 70% 30.00 in 10.0 mi NNE 5.8 mph - N/A   Clear
5:53 AM 66.0 °F 55.9 °F 70% 30.01 in 10.0 mi NNE 6.9 mph - N/A   Clear
6:53 AM 64.9 °F 55.9 °F 73% 30.02 in 10.0 mi NE 4.6 mph - N/A   Clear
7:53 AM 68.0 °F 55.9 °F 65% 30.04 in 10.0 mi NE 5.8 mph - N/A   Clear
8:53 AM 70.0 °F 55.9 °F 61% 30.05 in 10.0 mi NE 5.8 mph - N/A   Clear
9:53 AM 71.1 °F 55.9 °F 59% 30.06 in 10.0 mi NE 4.6 mph - N/A   Clear
10:53 AM 72.0 °F 55.9 °F 57% 30.05 in 10.0 mi Calm Calm - N/A   Mostly Cloudy
11:53 AM 73.9 °F 55.9 °F 53% 30.03 in 10.0 mi Calm Calm - N/A   Mostly Cloudy
12:53 PM 73.0 °F 55.9 °F 55% 30.00 in 10.0 mi Calm Calm - N/A   Clear
1:53 PM 73.0 °F 57.9 °F 59% 29.99 in 10.0 mi Calm Calm - N/A   Clear
2:53 PM 72.0 °F 57.0 °F 59% 29.98 in 10.0 mi Variable 3.5 mph - N/A   Clear
3:53 PM 72.0 °F 57.0 °F 59% 29.97 in 10.0 mi West 3.5 mph - N/A   Clear
4:53 PM 71.1 °F 57.9 °F 63% 29.98 in 10.0 mi NNW 3.5 mph - N/A   Clear
5:53 PM 66.9 °F 57.9 °F 73% 29.99 in 10.0 mi WNW 3.5 mph - N/A   Partly Cloudy
6:53 PM 69.1 °F 59.0 °F 70% 30.00 in 10.0 mi WNW 4.6 mph - N/A   Clear
7:53 PM 70.0 °F 63.0 °F 78% 30.02 in 10.0 mi NNW 10.4 mph 18.4 mph N/A   Mostly Cloudy
8:53 PM 69.1 °F 61.0 °F 75% 30.04 in 10.0 mi NNW 11.5 mph 19.6 mph N/A   Partly Cloudy
9:53 PM 68.0 °F 61.0 °F 78% 30.05 in 10.0 mi North 11.5 mph 17.3 mph N/A   Mostly Cloudy
10:49 PM 66.2 °F 60.8 °F 83% 30.06 in 10.0 mi NNW 12.7 mph 19.6 mph N/A   Mostly Cloudy
10:53 PM 68.0 °F 60.1 °F 76% 30.06 in 10.0 mi North 9.2 mph 19.6 mph N/A   Mostly Cloudy
11:36 PM 66.2 °F 60.8 °F 83% 30.05 in 10.0 mi North 13.8 mph 18.4 mph N/A   Mostly Cloudy
11:53 PM 66.9 °F 60.1 °F 79% 30.05 in 10.0 mi North 11.5 mph - N/A   Mostly Cloudy